| time (UTC) | temp F | wind direction | speed MPH | gust MPH | rain 1hr in | rain 24hr in | rain mn in | humidity % | barometer mb |
| 20260510141541 | 68 | 196 | 1.0 | 6.0 | 0.00 | 0.00 | 0.00 | 59 | 1014.9 |
| 20260510140037 | 66 | 332 | 0.0 | 1.0 | 0.00 | 0.00 | 0.00 | 62 | 1014.9 |
| 20260510134533 | 65 | 339 | 0.0 | 1.0 | 0.00 | 0.00 | 0.00 | 66 | 1015.0 |
| 20260510133028 | 62 | 263 | 0.0 | 3.0 | 0.00 | 0.00 | 0.00 | 69 | 1015.0 |
| 20260510131527 | 61 | 257 | 0.0 | 0.0 | 0.00 | 0.00 | 0.00 | 74 | 1015.1 |
| 20260510130025 | 59 | 257 | 0.0 | 0.0 | 0.00 | 0.00 | 0.00 | 77 | 1014.8 |
| 20260510124523 | 58 | 257 | 0.0 | 0.0 | 0.00 | 0.00 | 0.00 | 80 | 1014.6 |
| 20260510123021 | 56 | 257 | 0.0 | 0.0 | 0.00 | 0.00 | 0.00 | 82 | 1014.6 |
| 20260510121520 | 56 | 257 | 0.0 | 1.0 | 0.00 | 0.00 | 0.00 | 83 | 1014.5 |
| 20260510120020 | 55 | 257 | 0.0 | 0.0 | 0.00 | 0.00 | 0.00 | 83 | 1014.5 |
| 20260510114522 | 55 | 257 | 0.0 | 0.0 | 0.00 | 0.00 | 0.00 | 83 | 1014.2 |
| 20260510113024 | 55 | 257 | 0.0 | 0.0 | 0.00 | 0.00 | 0.00 | 83 | 1014.2 |
| 20260510111515 | 54 | 257 | 0.0 | 0.0 | 0.00 | 0.00 | 0.00 | 82 | 1013.9 |
| 20260510110019 | 54 | 257 | 0.0 | 0.0 | 0.00 | 0.00 | 0.00 | 82 | 1013.6 |
| 20260510104511 | 54 | 257 | 0.0 | 0.0 | 0.00 | 0.00 | 0.00 | 82 | 1013.3 |
| 20260510103010 | 53 | 257 | 0.0 | 0.0 | 0.00 | 0.00 | 0.00 | 82 | 1013.1 |
| 20260510101508 | 53 | 257 | 0.0 | 0.0 | 0.00 | 0.00 | 0.00 | 82 | 1013.0 |
| 20260510100009 | 53 | 257 | 0.0 | 0.0 | 0.00 | 0.00 | 0.00 | 81 | 1012.8 |
| 20260510094505 | 53 | 257 | 0.0 | 0.0 | 0.00 | 0.00 | 0.00 | 81 | 1012.7 |
| 20260510093003 | 53 | 257 | 0.0 | 0.0 | 0.00 | 0.00 | 0.00 | 80 | 1012.5 |
| 20260510091601 | 54 | 257 | 0.0 | 0.0 | 0.00 | 0.00 | 0.00 | 79 | 1012.3 |
| 20260510090058 | 55 | 257 | 0.0 | 0.0 | 0.00 | 0.00 | 0.00 | 77 | 1012.2 |
| 20260510084610 | 55 | 257 | 0.0 | 0.0 | 0.00 | 0.00 | 0.00 | 78 | 1012.1 |
| 20260510083056 | 55 | 257 | 0.0 | 0.0 | 0.00 | 0.00 | 0.00 | 77 | 1012.1 |
| 20260510081556 | 55 | 257 | 0.0 | 0.0 | 0.00 | 0.00 | 0.00 | 75 | 1012.1 |
| 20260510080100 | 57 | 257 | 0.0 | 1.0 | 0.00 | 0.00 | 0.00 | 73 | 1011.9 |
| 20260510074552 | 58 | 257 | 0.0 | 0.0 | 0.00 | 0.00 | 0.00 | 72 | 1011.8 |
| 20260510073051 | 57 | 257 | 0.0 | 0.0 | 0.00 | 0.00 | 0.00 | 73 | 1011.8 |
| 20260510071548 | 57 | 257 | 0.0 | 0.0 | 0.00 | 0.00 | 0.00 | 72 | 1011.7 |
| 20260510070050 | 58 | 257 | 0.0 | 0.0 | 0.00 | 0.00 | 0.00 | 71 | 1011.7 |
| 20260510064547 | 58 | 257 | 0.0 | 0.0 | 0.00 | 0.00 | 0.00 | 71 | 1011.7 |
| 20260510063043 | 57 | 257 | 0.0 | 0.0 | 0.00 | 0.00 | 0.00 | 71 | 1011.8 |
| 20260510061542 | 57 | 257 | 0.0 | 2.0 | 0.00 | 0.00 | 0.00 | 71 | 1011.9 |
| 20260510060046 | 57 | 257 | 1.0 | 3.0 | 0.00 | 0.00 | 0.00 | 71 | 1011.9 |
| 20260510054540 | 57 | 257 | 0.0 | 0.0 | 0.00 | 0.00 | 0.00 | 70 | 1012.0 |
| 20260510053037 | 58 | 257 | 0.0 | 0.0 | 0.00 | 0.00 | 0.00 | 69 | 1012.0 |
| 20260510051534 | 59 | 257 | 0.0 | 0.0 | 0.00 | 0.00 | 0.00 | 67 | 1011.9 |
| 20260510050034 | 60 | 257 | 0.0 | 0.0 | 0.00 | 0.00 | 0.00 | 64 | 1012.0 |
| 20260510044528 | 62 | 257 | 0.0 | 1.0 | 0.00 | 0.00 | 0.00 | 61 | 1012.0 |
| 20260510043029 | 62 | 257 | 0.0 | 1.0 | 0.00 | 0.00 | 0.00 | 61 | 1012.1 |
| 20260510041527 | 62 | 257 | 0.0 | 0.0 | 0.00 | 0.00 | 0.00 | 61 | 1011.9 |
| 20260510040022 | 61 | 257 | 0.0 | 0.0 | 0.00 | 0.00 | 0.00 | 61 | 1012.2 |
| 20260510034522 | 62 | 257 | 0.0 | 1.0 | 0.00 | 0.00 | 0.00 | 60 | 1012.1 |
| 20260510033021 | 62 | 257 | 0.0 | 0.0 | 0.00 | 0.00 | 0.00 | 60 | 1011.9 |
| 20260510031524 | 62 | 257 | 0.0 | 0.0 | 0.00 | 0.00 | 0.00 | 59 | 1011.7 |
| 20260510030020 | 62 | 257 | 0.0 | 0.0 | 0.00 | 0.00 | 0.00 | 60 | 1011.6 |
| 20260510024522 | 62 | 257 | 0.0 | 0.0 | 0.00 | 0.00 | 0.00 | 60 | 1011.5 |
| 20260510023019 | 62 | 257 | 0.0 | 0.0 | 0.00 | 0.00 | 0.00 | 59 | 1011.4 |
| 20260510021546 | 63 | 257 | 0.0 | 0.0 | 0.00 | 0.00 | 0.00 | 58 | 1011.3 |
| 20260510020018 | 63 | 257 | 0.0 | 0.0 | 0.00 | 0.00 | 0.00 | 57 | 1011.0 |
| 20260510014531 | 64 | 257 | 0.0 | 2.0 | 0.00 | 0.00 | 0.00 | 56 | 1010.8 |
| 20260510013017 | 65 | 257 | 0.0 | 2.0 | 0.00 | 0.00 | 0.00 | 54 | 1010.5 |
| 20260510011518 | 65 | 257 | 0.0 | 0.0 | 0.00 | 0.00 | 0.00 | 53 | 1010.3 |
| 20260510010027 | 66 | 257 | 0.0 | 0.0 | 0.00 | 0.00 | 0.00 | 52 | 1010.1 |
| 20260510004518 | 66 | 257 | 0.0 | 1.0 | 0.00 | 0.00 | 0.00 | 51 | 1009.8 |
| 20260510003019 | 67 | 257 | 0.0 | 1.0 | 0.00 | 0.00 | 0.00 | 51 | 1009.9 |
| 20260510001515 | 68 | 257 | 0.0 | 2.0 | 0.00 | 0.00 | 0.00 | 49 | 1009.8 |
| 20260510000015 | 69 | 257 | 0.0 | 0.0 | 0.00 | 0.00 | 0.00 | 48 | 1009.5 |
| 20260509234515 | 70 | 257 | 0.0 | 3.0 | 0.00 | 0.00 | 0.00 | 47 | 1009.3 |
| 20260509233013 | 71 | 248 | 0.0 | 4.0 | 0.00 | 0.00 | 0.00 | 46 | 1009.1 |
| 20260509231511 | 71 | 229 | 0.0 | 10.0 | 0.00 | 0.00 | 0.00 | 44 | 1009.0 |
| 20260509230022 | 72 | 263 | 1.0 | 4.0 | 0.00 | 0.00 | 0.00 | 44 | 1008.7 |
| 20260509224511 | 72 | 293 | 2.0 | 7.0 | 0.00 | 0.00 | 0.00 | 44 | 1008.8 |
| 20260509223011 | 73 | 257 | 0.0 | 4.0 | 0.00 | 0.00 | 0.00 | 44 | 1008.8 |
| 20260509221509 | 73 | 240 | 0.0 | 3.0 | 0.00 | 0.00 | 0.00 | 46 | 1008.8 |
| 20260509220010 | 73 | 237 | 1.0 | 4.0 | 0.00 | 0.00 | 0.00 | 46 | 1008.7 |
| 20260509214509 | 73 | 226 | 0.0 | 4.0 | 0.00 | 0.00 | 0.00 | 44 | 1008.6 |
| 20260509213010 | 73 | 214 | 0.0 | 4.0 | 0.00 | 0.00 | 0.00 | 44 | 1008.5 |
| 20260509211506 | 73 | 311 | 0.0 | 5.0 | 0.00 | 0.00 | 0.00 | 44 | 1008.5 |
| 20260509210006 | 74 | 232 | 0.0 | 5.0 | 0.00 | 0.00 | 0.00 | 44 | 1008.2 |
| 20260509204505 | 74 | 271 | 1.0 | 8.0 | 0.00 | 0.00 | 0.00 | 42 | 1008.3 |
| 20260509203004 | 75 | 309 | 0.0 | 8.0 | 0.00 | 0.00 | 0.00 | 42 | 1008.2 |
| 20260509201510 | 76 | 310 | 1.0 | 11.0 | 0.00 | 0.00 | 0.00 | 41 | 1008.1 |
| 20260509200104 | 75 | 275 | 0.0 | 5.0 | 0.00 | 0.00 | 0.00 | 44 | 1008.2 |
| 20260509194602 | 75 | 284 | 0.0 | 7.0 | 0.00 | 0.00 | 0.00 | 43 | 1008.3 |
| 20260509193057 | 74 | 323 | 0.0 | 8.0 | 0.00 | 0.00 | 0.00 | 47 | 1008.2 |
| 20260509191606 | 74 | 267 | 0.0 | 9.0 | 0.00 | 0.00 | 0.00 | 46 | 1008.4 |
| 20260509190053 | 73 | 310 | 0.0 | 6.0 | 0.00 | 0.00 | 0.00 | 53 | 1008.6 |
| 20260509184558 | 73 | 311 | 0.0 | 3.0 | 0.00 | 0.00 | 0.00 | 52 | 1008.5 |
| 20260509183051 | 72 | 327 | 0.0 | 2.0 | 0.00 | 0.00 | 0.00 | 52 | 1008.7 |
| 20260509181545 | 71 | 327 | 0.0 | 1.0 | 0.00 | 0.00 | 0.00 | 59 | 1008.9 |
| 20260509180051 | 70 | 327 | 0.0 | 5.0 | 0.00 | 0.00 | 0.00 | 60 | 1009.0 |
| 20260509174537 | 68 | 5 | 0.0 | 0.0 | 0.00 | 0.00 | 0.00 | 63 | 1009.4 |
| 20260509173046 | 68 | 5 | 0.0 | 2.0 | 0.00 | 0.00 | 0.00 | 65 | 1009.3 |
| 20260509171537 | 66 | 5 | 0.0 | 0.0 | 0.00 | 0.00 | 0.00 | 65 | 1009.6 |
| 20260509170030 | 66 | 5 | 0.0 | 1.0 | 0.00 | 0.00 | 0.00 | 63 | 1009.9 |
| 20260509164528 | 67 | 5 | 0.0 | 5.0 | 0.00 | 0.00 | 0.00 | 65 | 1009.9 |
| 20260509163027 | 66 | 5 | 0.0 | 4.0 | 0.00 | 0.00 | 0.00 | 66 | 1009.9 |
| 20260509161521 | 65 | 5 | 0.0 | 4.0 | 0.00 | 0.00 | 0.00 | 67 | 1009.9 |
| 20260509160020 | 64 | 5 | 0.0 | 0.0 | 0.00 | 0.00 | 0.00 | 70 | 1010.0 |
| 20260509154518 | 63 | 5 | 0.0 | 2.0 | 0.00 | 0.00 | 0.00 | 69 | 1009.9 |
| 20260509153028 | 63 | 5 | 0.0 | 5.0 | 0.00 | 0.00 | 0.00 | 68 | 1010.3 |
| 20260509151514 | 63 | 5 | 0.0 | 4.0 | 0.00 | 0.00 | 0.00 | 67 | 1010.4 |
| 20260509150017 | 63 | 294 | 0.0 | 3.0 | 0.00 | 0.00 | 0.00 | 70 | 1010.2 |
| 20260509144508 | 61 | 293 | 0.0 | 3.0 | 0.00 | 0.00 | 0.00 | 72 | 1010.4 |
| 20260509143003 | 60 | 292 | 0.0 | 1.0 | 0.00 | 0.00 | 0.00 | 72 | 1010.6 |